Orbital Elements at Epoch 2459200.5 (2020-Dec-17.0) TDB
Reference: JPL 25 (heliocentric ecliptic J2000)
Element | Value | Uncertainty (1-sigma) | Units |
e | .1893551423079615 | 4.2807e-08 | |
a | 2.691477097954321 | 1.1666e-08 | au |
q | 2.181832069052561 | 1.1694e-07 | au |
i | 13.65729879293634 | 5.2193e-06 | deg |
node | 10.20793812558495 | 1.5264e-05 | deg |
peri | 141.1606160581411 | 1.975e-05 | deg |
M | 343.8235738601529 | 1.0892e-05 | deg |
tp | 2459272.971047437576 (2021-Feb-27.47104744) | 4.8838e-05 | TDB |
period | 1612.814650898768 4.42 | 1.0486e-05 2.871e-08 | d yr |
n | .2232122580231919 | 1.4512e-09 | deg/d |
Q | 3.20112212685608 | 1.3875e-08 | au |
|
| | Orbit Determination Parameters
Additional Information
|